Time,TemperatureF,DewpointF,PressureIn,WindDirection,WindDirectionDegrees,WindSpeedMPH,WindSpeedGustMPH,Humidity,HourlyPrecipIn,Conditions,Clouds,dailyrainin,SoftwareType,DateUTC
2013-02-20 00:01:00,13.0,0.0,-100.00,NNW,340,8.0,12.0,55,0.00,,,-99.99,,2013-02-20 06:01:00,
2013-02-20 00:11:00,12.0,0.0,-100.00,NNW,340,6.0,10.0,57,0.00,,,-99.99,,2013-02-20 06:11:00,
2013-02-20 00:21:00,12.0,0.0,-100.00,NW,325,4.0,8.0,57,0.00,,,-99.99,,2013-02-20 06:21:00,
2013-02-20 00:31:00,12.0,0.0,-100.00,NNW,340,4.0,7.0,58,0.00,,,-99.99,,2013-02-20 06:31:00,
2013-02-20 00:42:00,11.0,0.0,-100.00,North,0,7.0,11.0,59,0.00,,,-99.99,,2013-02-20 06:42:00,
2013-02-20 00:51:00,11.0,0.0,-100.00,North,0,9.0,16.0,60,0.00,,,-99.99,,2013-02-20 06:51:00,
2013-02-20 01:01:00,11.0,0.0,-100.00,North,0,9.0,16.0,60,0.00,,,-99.99,,2013-02-20 07:01:00,
2013-02-20 01:11:00,10.0,0.0,-100.00,North,0,9.0,12.0,61,0.00,,,-99.99,,2013-02-20 07:11:00,
2013-02-20 01:21:00,10.0,0.0,-100.00,North,0,11.0,16.0,62,0.00,,,-99.99,,2013-02-20 07:21:00,
2013-02-20 01:31:00,10.0,0.0,-100.00,North,0,9.0,16.0,62,0.00,,,-99.99,,2013-02-20 07:31:00,
2013-02-20 01:41:00,10.0,0.0,-100.00,North,0,11.0,14.0,63,0.00,,,-99.99,,2013-02-20 07:41:00,
2013-02-20 01:51:00,9.0,0.0,-100.00,North,10,10.0,14.0,64,0.00,,,-99.99,,2013-02-20 07:51:00,
2013-02-20 02:05:00,9.0,0.0,-100.00,North,10,10.0,14.0,64,0.00,,,-99.99,,2013-02-20 08:05:00,
2013-02-20 02:11:00,9.0,-1.0,-100.00,North,10,10.0,13.0,65,0.00,,,-99.99,,2013-02-20 08:11:00,
2013-02-20 02:21:00,8.0,-1.0,-100.00,North,10,6.0,12.0,65,0.00,,,-99.99,,2013-02-20 08:21:00,
2013-02-20 02:31:00,8.0,-1.0,-100.00,North,10,9.0,12.0,66,0.00,,,-99.99,,2013-02-20 08:31:00,
2013-02-20 02:41:00,8.0,0.0,-100.00,North,5,11.0,14.0,67,0.00,,,-99.99,,2013-02-20 08:41:00,
2013-02-20 02:52:00,8.0,-1.0,-100.00,North,355,7.0,11.0,68,0.00,,,-99.99,,2013-02-20 08:52:00,
2013-02-20 03:01:00,8.0,-1.0,-100.00,North,355,7.0,11.0,68,0.00,,,-99.99,,2013-02-20 09:01:00,
2013-02-20 03:11:00,7.0,-1.0,-100.00,North,5,7.0,8.0,69,0.00,,,-99.99,,2013-02-20 09:11:00,
2013-02-20 03:21:00,7.0,-1.0,-100.00,North,10,6.0,9.0,70,0.00,,,-99.99,,2013-02-20 09:21:00,
2013-02-20 03:31:00,7.0,-1.0,-100.00,North,10,10.0,12.0,70,0.00,,,-99.99,,2013-02-20 09:31:00,
2013-02-20 03:41:00,7.0,-1.0,-100.00,NNE,15,9.0,16.0,71,0.00,,,-99.99,,2013-02-20 09:41:00,
2013-02-20 03:51:00,6.0,-1.0,-100.00,North,5,7.0,12.0,73,0.00,,,-99.99,,2013-02-20 09:51:00,
2013-02-20 04:01:00,6.0,-1.0,-100.00,North,5,7.0,12.0,73,0.00,,,-99.99,,2013-02-20 10:01:00,
2013-02-20 04:12:00,6.0,-1.0,-100.00,North,0,6.0,11.0,74,0.00,,,-99.99,,2013-02-20 10:12:00,
2013-02-20 04:21:00,6.0,-1.0,-100.00,North,0,7.0,9.0,74,0.00,,,-99.99,,2013-02-20 10:21:00,
2013-02-20 04:31:00,6.0,-1.0,-100.00,North,10,6.0,11.0,75,0.00,,,-99.99,,2013-02-20 10:31:00,
2013-02-20 04:41:00,5.0,-1.0,-100.00,North,0,6.0,7.0,75,0.00,,,-99.99,,2013-02-20 10:41:00,
2013-02-20 04:51:00,5.0,-1.0,-100.00,North,10,4.0,7.0,75,0.00,,,-99.99,,2013-02-20 10:51:00,
2013-02-20 05:02:00,5.0,-1.0,-100.00,North,10,4.0,7.0,75,0.00,,,-99.99,,2013-02-20 11:02:00,
2013-02-20 05:11:00,4.0,-2.0,-100.00,NNE,15,7.0,9.0,75,0.00,,,-99.99,,2013-02-20 11:11:00,
2013-02-20 05:21:00,4.0,-2.0,-100.00,North,0,6.0,9.0,75,0.00,,,-99.99,,2013-02-20 11:21:00,
2013-02-20 05:32:00,4.0,-2.0,-100.00,NNE,20,7.0,12.0,75,0.00,,,-99.99,,2013-02-20 11:32:00,
2013-02-20 05:41:00,4.0,-2.0,-100.00,North,10,4.0,9.0,75,0.00,,,-99.99,,2013-02-20 11:41:00,
2013-02-20 05:52:00,3.0,-3.0,-100.00,NNE,20,4.0,6.0,75,0.00,,,-99.99,,2013-02-20 11:52:00,
2013-02-20 06:01:00,3.0,-3.0,-100.00,NNE,20,4.0,6.0,75,0.00,,,-99.99,,2013-02-20 12:01:00,
2013-02-20 06:12:00,3.0,-3.0,-100.00,NNE,25,4.0,7.0,76,0.00,,,-99.99,,2013-02-20 12:12:00,
2013-02-20 06:21:00,3.0,-3.0,-100.00,NE,40,6.0,9.0,76,0.00,,,-99.99,,2013-02-20 12:21:00,
2013-02-20 06:32:00,3.0,-3.0,-100.00,NNE,25,4.0,7.0,76,0.00,,,-99.99,,2013-02-20 12:32:00,
2013-02-20 06:42:00,3.0,-3.0,-100.00,NNE,20,7.0,9.0,76,0.00,,,-99.99,,2013-02-20 12:42:00,
2013-02-20 06:52:00,2.0,-3.0,-100.00,NE,35,8.0,11.0,76,0.00,,,-99.99,,2013-02-20 12:52:00,
2013-02-20 07:01:00,2.0,-3.0,-100.00,NE,35,8.0,11.0,76,0.00,,,-99.99,,2013-02-20 13:01:00,
2013-02-20 07:11:00,2.0,-3.0,-100.00,NE,50,7.0,11.0,76,0.00,,,-99.99,,2013-02-20 13:11:00,
2013-02-20 07:22:00,2.0,-3.0,-100.00,NE,35,5.0,10.0,75,0.00,,,-99.99,,2013-02-20 13:22:00,
2013-02-20 07:31:00,2.0,-4.0,-100.00,NE,40,6.0,9.0,75,0.00,,,-99.99,,2013-02-20 13:31:00,
2013-02-20 07:42:00,3.0,-3.0,-100.00,NNE,15,7.0,12.0,76,0.00,,,-99.99,,2013-02-20 13:42:00,
2013-02-20 07:51:00,3.0,-3.0,-100.00,NE,35,8.0,12.0,75,0.00,,,-99.99,,2013-02-20 13:51:00,
2013-02-20 08:01:00,3.0,-3.0,-100.00,NE,35,8.0,12.0,75,0.00,,,-99.99,,2013-02-20 14:01:00,
2013-02-20 08:11:00,4.0,-2.0,-100.00,NNE,30,3.0,9.0,74,0.00,,,-99.99,,2013-02-20 14:11:00,
2013-02-20 08:21:00,5.0,-2.0,-100.00,NNE,15,6.0,9.0,73,0.00,,,-99.99,,2013-02-20 14:21:00,
2013-02-20 08:32:00,6.0,-1.0,-100.00,NNE,25,5.0,9.0,71,0.00,,,-99.99,,2013-02-20 14:32:00,
2013-02-20 08:42:00,6.0,-2.0,-100.00,ENE,60,6.0,9.0,69,0.00,,,-99.99,,2013-02-20 14:42:00,
2013-02-20 08:52:00,7.0,-1.0,-100.00,ENE,75,6.0,9.0,67,0.00,,,-99.99,,2013-02-20 14:52:00,
2013-02-20 09:01:00,7.0,-1.0,-100.00,ENE,75,6.0,9.0,67,0.00,,,-99.99,,2013-02-20 15:01:00,
2013-02-20 09:11:00,8.0,-1.0,-100.00,ENE,60,8.0,11.0,66,0.00,,,-99.99,,2013-02-20 15:11:00,
2013-02-20 09:22:00,8.0,0.0,-100.00,ENE,70,6.0,11.0,66,0.00,,,-99.99,,2013-02-20 15:22:00,
2013-02-20 09:32:00,9.0,0.0,-100.00,NE,55,9.0,10.0,65,0.00,,,-99.99,,2013-02-20 15:32:00,
2013-02-20 09:41:00,9.0,0.0,-100.00,ENE,65,6.0,11.0,64,0.00,,,-99.99,,2013-02-20 15:41:00,
2013-02-20 09:51:00,11.0,1.0,-100.00,ESE,105,6.0,9.0,63,0.00,,,-99.99,,2013-02-20 15:51:00,
2013-02-20 10:01:00,11.0,1.0,-100.00,ESE,105,6.0,9.0,63,0.00,,,-99.99,,2013-02-20 16:01:00,
2013-02-20 10:11:00,12.0,1.0,-100.00,ENE,75,5.0,9.0,61,0.00,,,-99.99,,2013-02-20 16:11:00,
2013-02-20 10:21:00,12.0,1.0,-100.00,NE,55,7.0,9.0,60,0.00,,,-99.99,,2013-02-20 16:21:00,
2013-02-20 10:32:00,13.0,1.0,-100.00,East,100,3.0,7.0,59,0.00,,,-99.99,,2013-02-20 16:32:00,
2013-02-20 10:41:00,15.0,2.0,-100.00,SE,145,3.0,8.0,57,0.00,,,-99.99,,2013-02-20 16:41:00,
2013-02-20 10:52:00,15.0,2.0,-100.00,ESE,105,3.0,6.0,55,0.00,,,-99.99,,2013-02-20 16:52:00,
2013-02-20 11:01:00,15.0,2.0,-100.00,ESE,105,3.0,6.0,55,0.00,,,-99.99,,2013-02-20 17:01:00,
2013-02-20 11:11:00,16.0,2.0,-100.00,SE,130,4.0,7.0,53,0.00,,,-99.99,,2013-02-20 17:11:00,
2013-02-20 11:21:00,16.0,3.0,-100.00,ESE,110,2.0,6.0,53,0.00,,,-99.99,,2013-02-20 17:21:00,
2013-02-20 11:32:00,17.0,3.0,-100.00,ENE,65,2.0,6.0,52,0.00,,,-99.99,,2013-02-20 17:32:00,
2013-02-20 11:41:00,17.0,2.0,-100.00,ESE,115,3.0,6.0,51,0.00,,,-99.99,,2013-02-20 17:41:00,
2013-02-20 11:52:00,18.0,3.0,-100.00,ENE,75,4.0,8.0,51,0.00,,,-99.99,,2013-02-20 17:52:00,
2013-02-20 12:02:00,18.0,3.0,-100.00,ENE,75,4.0,8.0,51,0.00,,,-99.99,,2013-02-20 18:02:00,
2013-02-20 12:11:00,18.0,3.0,-100.00,ENE,75,5.0,7.0,50,0.00,,,-99.99,,2013-02-20 18:11:00,
2013-02-20 12:21:00,18.0,3.0,-100.00,ENE,65,2.0,7.0,50,0.00,,,-99.99,,2013-02-20 18:21:00,
2013-02-20 12:32:00,19.0,3.0,-100.00,ENE,60,2.0,7.0,49,0.00,,,-99.99,,2013-02-20 18:32:00,
2013-02-20 12:42:00,19.0,3.0,-100.00,NE,50,6.0,9.0,49,0.00,,,-99.99,,2013-02-20 18:42:00,
2013-02-20 12:51:00,19.0,3.0,-100.00,NE,55,7.0,10.0,48,0.00,,,-99.99,,2013-02-20 18:51:00,
2013-02-20 13:01:00,19.0,3.0,-100.00,NE,55,7.0,10.0,48,0.00,,,-99.99,,2013-02-20 19:01:00,
2013-02-20 13:11:00,20.0,4.0,-100.00,ENE,60,7.0,10.0,48,0.00,,,-99.99,,2013-02-20 19:11:00,
2013-02-20 13:21:00,20.0,4.0,-100.00,East,80,7.0,10.0,47,0.00,,,-99.99,,2013-02-20 19:21:00,
2013-02-20 13:31:00,21.0,4.0,-100.00,ESE,110,3.0,9.0,47,0.00,,,-99.99,,2013-02-20 19:31:00,
2013-02-20 13:41:00,21.0,4.0,-100.00,East,100,6.0,9.0,47,0.00,,,-99.99,,2013-02-20 19:41:00,
2013-02-20 13:51:00,22.0,4.0,-100.00,ENE,65,6.0,9.0,45,0.00,,,-99.99,,2013-02-20 19:51:00,
2013-02-20 14:01:00,22.0,4.0,-100.00,ENE,65,6.0,9.0,45,0.00,,,-99.99,,2013-02-20 20:01:00,
2013-02-20 14:11:00,22.0,4.0,-100.00,East,80,6.0,9.0,45,0.00,,,-99.99,,2013-02-20 20:11:00,
2013-02-20 14:21:00,22.0,5.0,-100.00,ENE,65,4.0,9.0,45,0.00,,,-99.99,,2013-02-20 20:21:00,
2013-02-20 14:31:00,22.0,4.0,-100.00,ENE,60,6.0,7.0,45,0.00,,,-99.99,,2013-02-20 20:31:00,
2013-02-20 14:41:00,22.0,4.0,-100.00,ENE,60,6.0,7.0,45,0.00,,,-99.99,,2013-02-20 20:41:00,
2013-02-20 14:51:00,22.0,4.0,-100.00,East,100,6.0,8.0,45,0.00,,,-99.99,,2013-02-20 20:51:00,
2013-02-20 15:01:00,22.0,4.0,-100.00,East,100,6.0,8.0,45,0.00,,,-99.99,,2013-02-20 21:01:00,
2013-02-20 15:11:00,22.0,4.0,-100.00,ENE,75,7.0,9.0,45,0.00,,,-99.99,,2013-02-20 21:11:00,
2013-02-20 15:21:00,23.0,5.0,-100.00,East,95,6.0,9.0,44,0.00,,,-99.99,,2013-02-20 21:21:00,
2013-02-20 15:31:00,23.0,4.0,-100.00,East,85,9.0,12.0,44,0.00,,,-99.99,,2013-02-20 21:31:00,
2013-02-20 15:41:00,23.0,4.0,-100.00,East,85,9.0,12.0,44,0.00,,,-99.99,,2013-02-20 21:41:00,
2013-02-20 15:51:00,23.0,5.0,-100.00,East,90,7.0,11.0,44,0.00,,,-99.99,,2013-02-20 21:51:00,
2013-02-20 16:01:00,23.0,5.0,-100.00,East,90,7.0,11.0,44,0.00,,,-99.99,,2013-02-20 22:01:00,
2013-02-20 16:11:00,23.0,5.0,-100.00,East,90,7.0,12.0,44,0.00,,,-99.99,,2013-02-20 22:11:00,
2013-02-20 16:21:00,23.0,5.0,-100.00,East,80,6.0,12.0,44,0.00,,,-99.99,,2013-02-20 22:21:00,
2013-02-20 16:31:00,24.0,5.0,-100.00,East,80,6.0,10.0,44,0.00,,,-99.99,,2013-02-20 22:31:00,
2013-02-20 16:42:00,23.0,5.0,-100.00,ENE,75,7.0,11.0,44,0.00,,,-99.99,,2013-02-20 22:42:00,
2013-02-20 16:51:00,23.0,5.0,-100.00,ENE,65,7.0,12.0,44,0.00,,,-99.99,,2013-02-20 22:51:00,
2013-02-20 17:01:00,23.0,5.0,-100.00,ENE,65,7.0,12.0,44,0.00,,,-99.99,,2013-02-20 23:01:00,
2013-02-20 17:12:00,23.0,4.0,-100.00,East,80,9.0,12.0,44,0.00,,,-99.99,,2013-02-20 23:12:00,
2013-02-20 17:22:00,23.0,5.0,-100.00,East,80,7.0,12.0,44,0.00,,,-99.99,,2013-02-20 23:22:00,
2013-02-20 17:32:00,23.0,5.0,-100.00,ENE,65,7.0,14.0,45,0.00,,,-99.99,,2013-02-20 23:32:00,
2013-02-20 17:42:00,23.0,5.0,-100.00,East,80,9.0,13.0,45,0.00,,,-99.99,,2013-02-20 23:42:00,
2013-02-20 17:52:00,22.0,4.0,-100.00,ENE,65,9.0,14.0,45,0.00,,,-99.99,,2013-02-20 23:52:00,
2013-02-20 18:02:00,22.0,4.0,-100.00,ENE,65,9.0,14.0,45,0.00,,,-99.99,,2013-02-21 00:02:00,
2013-02-20 18:11:00,22.0,5.0,-100.00,ENE,75,9.0,13.0,46,0.00,,,-99.99,,2013-02-21 00:11:00,
2013-02-20 18:21:00,22.0,5.0,-100.00,ENE,70,9.0,12.0,47,0.00,,,-99.99,,2013-02-21 00:21:00,
2013-02-20 18:32:00,22.0,5.0,-100.00,ENE,70,11.0,16.0,47,0.00,,,-99.99,,2013-02-21 00:32:00,
2013-02-20 18:42:00,22.0,5.0,-100.00,ENE,65,7.0,13.0,47,0.00,,,-99.99,,2013-02-21 00:42:00,
2013-02-20 18:52:00,22.0,5.0,-100.00,ENE,60,7.0,13.0,47,0.00,,,-99.99,,2013-02-21 00:52:00,
2013-02-20 19:01:00,22.0,5.0,-100.00,ENE,60,7.0,13.0,47,0.00,,,-99.99,,2013-02-21 01:01:00,
2013-02-20 19:11:00,22.0,5.0,-100.00,ENE,65,11.0,15.0,47,0.00,,,-99.99,,2013-02-21 01:11:00,
2013-02-20 19:21:00,22.0,5.0,-100.00,ENE,70,7.0,15.0,47,0.00,,,-99.99,,2013-02-21 01:21:00,
2013-02-20 19:32:00,22.0,5.0,-100.00,East,85,9.0,13.0,47,0.00,,,-99.99,,2013-02-21 01:32:00,
2013-02-20 19:41:00,21.0,5.0,-100.00,East,80,8.0,14.0,47,0.00,,,-99.99,,2013-02-21 01:41:00,
2013-02-20 19:51:00,21.0,5.0,-100.00,East,85,9.0,13.0,47,0.00,,,-99.99,,2013-02-21 01:51:00,
2013-02-20 20:01:00,21.0,5.0,-100.00,East,85,9.0,13.0,47,0.00,,,-99.99,,2013-02-21 02:01:00,
2013-02-20 20:11:00,21.0,5.0,-100.00,East,90,7.0,11.0,48,0.00,,,-99.99,,2013-02-21 02:11:00,
2013-02-20 20:21:00,21.0,5.0,-100.00,ENE,75,9.0,12.0,48,0.00,,,-99.99,,2013-02-21 02:21:00,
2013-02-20 20:32:00,21.0,5.0,-100.00,East,80,7.0,12.0,48,0.00,,,-99.99,,2013-02-21 02:32:00,
2013-02-20 20:42:00,21.0,5.0,-100.00,East,80,7.0,12.0,48,0.00,,,-99.99,,2013-02-21 02:42:00,
2013-02-20 20:51:00,21.0,5.0,-100.00,East,80,7.0,12.0,48,0.00,,,-99.99,,2013-02-21 02:51:00,
2013-02-20 21:01:00,21.0,6.0,-100.00,East,80,6.0,12.0,50,0.00,,,-99.99,,2013-02-21 03:01:00,
2013-02-20 21:12:00,21.0,6.0,-100.00,East,85,7.0,14.0,50,0.00,,,-99.99,,2013-02-21 03:12:00,
2013-02-20 21:21:00,21.0,6.0,-100.00,East,85,9.0,12.0,50,0.00,,,-99.99,,2013-02-21 03:21:00,
2013-02-20 21:32:00,21.0,6.0,-100.00,East,80,7.0,13.0,51,0.00,,,-99.99,,2013-02-21 03:32:00,
2013-02-20 21:41:00,20.0,6.0,-100.00,ENE,70,9.0,14.0,51,0.00,,,-99.99,,2013-02-21 03:41:00,
2013-02-20 21:51:00,20.0,6.0,-100.00,East,80,8.0,12.0,52,0.00,,,-99.99,,2013-02-21 03:51:00,
2013-02-20 22:01:00,20.0,6.0,-100.00,East,80,8.0,12.0,52,0.00,,,-99.99,,2013-02-21 04:01:00,
2013-02-20 22:11:00,20.0,6.0,-100.00,East,90,7.0,11.0,53,0.00,,,-99.99,,2013-02-21 04:11:00,
2013-02-20 22:21:00,20.0,6.0,-100.00,East,90,6.0,9.0,53,0.00,,,-99.99,,2013-02-21 04:21:00,
2013-02-20 22:32:00,21.0,7.0,-100.00,East,90,7.0,12.0,53,0.00,,,-99.99,,2013-02-21 04:32:00,
2013-02-20 22:42:00,21.0,7.0,-100.00,East,85,6.0,12.0,53,0.00,,,-99.99,,2013-02-21 04:42:00,
2013-02-20 22:51:00,21.0,7.0,-100.00,East,85,9.0,15.0,53,0.00,,,-99.99,,2013-02-21 04:51:00,
2013-02-20 23:02:00,21.0,7.0,-100.00,East,85,9.0,15.0,53,0.00,,,-99.99,,2013-02-21 05:02:00,
2013-02-20 23:12:00,21.0,7.0,-100.00,East,90,10.0,16.0,54,0.00,,,-99.99,,2013-02-21 05:12:00,
2013-02-20 23:22:00,21.0,8.0,-100.00,East,100,7.0,14.0,54,0.00,,,-99.99,,2013-02-21 05:22:00,
2013-02-20 23:34:00,21.0,7.0,-100.00,ESE,110,9.0,16.0,54,0.00,,,-99.99,,2013-02-21 05:34:00,
2013-02-20 23:43:00,21.0,7.0,-100.00,East,90,11.0,16.0,54,0.00,,,-99.99,,2013-02-21 05:43:00,
2013-02-20 23:52:00,21.0,8.0,-100.00,East,95,11.0,16.0,54,0.00,,,-99.99,,2013-02-21 05:52:00,